Location: Karwodrza
(49.9217°N, 21.0454°E)
Time: 11:37:42
(UTC+01:00)

ISS - Visible Passes

Search period start: 26 March 2019 00:00
Search period end: 05 April 2019 01:00
Orbit: 408 x 411 km, 51.6° (Epoch: 26 March)

Date Brightness Start Highest point End Pass type
(mag) Time Alt. Az. Time Alt. Az. Time Alt. Az.
26 Mar -3.8 19:28:25 10° WSW 19:31:44 83° NNW 19:33:14 30° ENE visible
26 Mar -0.9 21:05:12 10° WNW 21:05:59 16° WNW 21:05:59 16° WNW visible
27 Mar -3.8 18:37:46 10° WSW 18:41:03 77° SSE 18:44:22 10° ENE visible
27 Mar -3.3 20:14:28 10° W 20:17:28 58° NNW 20:17:28 58° NNW visible
28 Mar -3.5 19:23:42 10° W 19:27:00 65° N 19:28:52 23° ENE visible
28 Mar -1.2 21:00:26 10° WNW 21:01:37 20° WNW 21:01:37 20° WNW visible
29 Mar -3.6 18:32:57 10° W 18:36:15 74° NNW 18:39:34 10° ENE visible
29 Mar -3.7 20:09:42 10° WNW 20:12:58 68° N 20:12:58 68° N visible
30 Mar -3.5 19:18:58 10° W 19:22:15 62° N 19:24:16 21° E visible
30 Mar -1.5 20:55:37 10° WNW 20:57:02 23° W 20:57:02 23° W visible
31 Mar -4.0 21:04:52 10° WNW 21:08:11 89° SSW 21:08:19 83° ESE visible
01 Apr -3.7 20:14:07 10° WNW 20:17:26 74° NNE 20:19:35 20° E visible
01 Apr -1.6 21:50:48 10° W 21:52:20 22° W 21:52:20 22° W visible
02 Apr -3.6 20:59:58 10° WNW 21:03:14 55° SSW 21:03:36 50° S visible
03 Apr -3.8 20:09:11 10° WNW 20:12:30 77° SSW 20:14:53 17° ESE visible
03 Apr -1.4 21:46:15 10° W 21:47:39 17° WSW 21:47:39 17° WSW visible
04 Apr -2.5 20:55:10 10° W 20:58:06 29° SSW 20:58:57 26° S visible
